TimePST,TemperatureF,Dew PointF,Humidity,Sea Level PressureIn,VisibilityMPH,Wind Direction,Wind SpeedMPH,Gust SpeedMPH,PrecipitationIn,Events,Conditions,WindDirDegrees,DateUTC
12:35 AM,32.0,32.0,100,30.70,10.0,NE,4.6,-,0.00,,Clear,50,2013-01-16 08:35:00
12:55 AM,32.0,32.0,100,30.70,10.0,NE,4.6,-,0.00,,Clear,40,2013-01-16 08:55:00
1:15 AM,32.0,32.0,100,30.69,10.0,NE,5.8,-,0.00,,Clear,50,2013-01-16 09:15:00
1:35 AM,32.0,32.0,100,30.70,10.0,NE,5.8,-,0.00,,Clear,40,2013-01-16 09:35:00
1:55 AM,32.0,32.0,100,30.70,10.0,NE,9.2,-,0.00,,Clear,40,2013-01-16 09:55:00
2:15 AM,32.0,32.0,100,30.70,10.0,NE,8.1,-,0.00,,Clear,50,2013-01-16 10:15:00
2:35 AM,32.0,32.0,100,30.70,10.0,NE,5.8,-,0.00,,Clear,40,2013-01-16 10:35:00
2:55 AM,32.0,32.0,100,30.70,10.0,NE,5.8,-,0.00,,Clear,50,2013-01-16 10:55:00
3:35 AM,32.0,32.0,100,30.70,10.0,NE,8.1,-,0.00,,Clear,50,2013-01-16 11:35:00
3:55 AM,32.0,32.0,100,30.69,10.0,NE,6.9,-,0.00,,Clear,50,2013-01-16 11:55:00
4:35 AM,32.0,32.0,100,30.69,10.0,NE,5.8,-,0.00,,Clear,40,2013-01-16 12:35:00
4:55 AM,32.0,32.0,100,30.68,10.0,NE,6.9,-,0.00,,Clear,50,2013-01-16 12:55:00
5:15 AM,-9999,-9999,N/A,30.67,10.0,NE,5.8,-,0.00,,Clear,40,2013-01-16 13:15:00
5:35 AM,30.2,30.2,100,30.67,10.0,NNE,3.5,-,0.00,,Clear,30,2013-01-16 13:35:00
5:55 AM,30.2,30.2,100,30.67,10.0,Calm,Calm,-,0.00,,Clear,0,2013-01-16 13:55:00
6:15 AM,30.2,30.2,100,30.66,10.0,North,3.5,-,0.00,,Clear,10,2013-01-16 14:15:00
6:35 AM,30.2,30.2,100,30.66,10.0,NE,5.8,-,0.00,,Clear,40,2013-01-16 14:35:00
6:55 AM,30.2,30.2,100,30.65,10.0,NE,6.9,-,0.00,,Clear,50,2013-01-16 14:55:00
7:55 AM,30.2,30.2,100,30.66,10.0,NNE,5.8,-,0.00,,Clear,30,2013-01-16 15:55:00
8:15 AM,30.2,30.2,100,30.66,10.0,NE,8.1,-,0.00,,Clear,50,2013-01-16 16:15:00
8:35 AM,-9999,-9999,N/A,30.67,10.0,ENE,5.8,-,0.00,,Clear,60,2013-01-16 16:35:00
8:55 AM,32.0,32.0,100,30.66,10.0,NE,5.8,-,0.00,,Clear,50,2013-01-16 16:55:00
9:15 AM,32.0,32.0,100,30.66,10.0,NE,6.9,-,0.00,,Clear,50,2013-01-16 17:15:00
9:35 AM,32.0,32.0,100,30.66,10.0,NE,5.8,-,0.00,,Clear,50,2013-01-16 17:35:00
9:55 AM,32.0,32.0,100,30.65,10.0,NE,6.9,-,0.00,,Clear,50,2013-01-16 17:55:00
10:15 AM,33.8,32.0,93,30.65,10.0,NE,5.8,-,0.00,,Clear,40,2013-01-16 18:15:00
10:55 AM,35.6,33.8,93,30.65,10.0,Calm,Calm,-,0.00,,Clear,0,2013-01-16 18:55:00
11:15 AM,35.6,33.8,93,30.64,10.0,Calm,Calm,-,0.00,,Clear,0,2013-01-16 19:15:00
11:35 AM,37.4,35.6,93,30.64,10.0,NE,4.6,-,0.00,,Clear,50,2013-01-16 19:35:00
11:55 AM,39.2,35.6,87,30.64,10.0,NNW,5.8,-,0.00,,Clear,340,2013-01-16 19:55:00
12:15 PM,39.2,35.6,87,30.63,10.0,NNW,8.1,-,0.00,,Clear,340,2013-01-16 20:15:00
12:35 PM,39.2,35.6,87,30.62,10.0,NW,6.9,-,0.00,,Clear,310,2013-01-16 20:35:00
12:55 PM,41.0,35.6,81,30.61,10.0,NW,11.5,-,0.00,,Clear,320,2013-01-16 20:55:00
1:15 PM,41.0,35.6,81,30.61,10.0,NW,10.4,-,0.00,,Clear,310,2013-01-16 21:15:00
1:35 PM,41.0,35.6,81,30.60,10.0,NW,8.1,-,0.00,,Clear,310,2013-01-16 21:35:00
1:55 PM,42.8,35.6,76,30.60,10.0,NW,8.1,-,0.00,,Clear,320,2013-01-16 21:55:00
2:15 PM,41.0,35.6,81,30.60,10.0,NNW,9.2,-,0.00,,Clear,330,2013-01-16 22:15:00
2:35 PM,41.0,35.6,81,30.59,10.0,NW,8.1,-,0.00,,Clear,310,2013-01-16 22:35:00
2:55 PM,41.0,35.6,81,30.59,10.0,NNW,6.9,-,0.00,,Clear,330,2013-01-16 22:55:00
3:15 PM,41.0,35.6,81,30.60,10.0,NW,8.1,-,0.00,,Clear,310,2013-01-16 23:15:00
3:35 PM,39.2,35.6,87,30.59,10.0,NW,8.1,-,0.00,,Clear,320,2013-01-16 23:35:00
3:55 PM,37.4,35.6,93,30.58,10.0,NW,6.9,-,0.00,,Clear,320,2013-01-16 23:55:00
4:15 PM,37.4,33.8,87,30.58,10.0,NW,6.9,-,0.00,,Clear,310,2013-01-17 00:15:00
4:35 PM,35.6,33.8,93,30.58,9.0,NW,8.1,-,0.00,,Clear,320,2013-01-17 00:35:00
4:55 PM,35.6,33.8,93,30.58,10.0,NW,8.1,-,0.00,,Clear,320,2013-01-17 00:55:00
5:15 PM,35.6,33.8,93,30.58,10.0,NNW,8.1,-,0.00,,Clear,330,2013-01-17 01:15:00
5:35 PM,37.4,33.8,87,30.58,10.0,NW,9.2,-,0.00,,Clear,320,2013-01-17 01:35:00
5:55 PM,35.6,33.8,93,30.58,10.0,NNW,8.1,-,0.00,,Clear,330,2013-01-17 01:55:00
6:15 PM,35.6,33.8,93,30.58,10.0,NNW,6.9,-,0.00,,Clear,340,2013-01-17 02:15:00
6:55 PM,35.6,33.8,93,30.58,10.0,NNW,6.9,-,0.00,,Clear,340,2013-01-17 02:55:00
7:15 PM,35.6,33.8,93,30.57,10.0,NNW,6.9,-,0.00,,Clear,340,2013-01-17 03:15:00
7:35 PM,33.8,33.8,100,30.57,10.0,NW,6.9,-,0.00,,Clear,320,2013-01-17 03:35:00
7:55 PM,35.6,33.8,93,30.56,10.0,North,6.9,-,0.00,,Clear,350,2013-01-17 03:55:00
8:15 PM,33.8,33.8,100,30.56,10.0,NNW,3.5,-,0.00,,Clear,330,2013-01-17 04:15:00
8:35 PM,32.0,32.0,100,30.56,9.0,Calm,Calm,-,0.00,,Clear,0,2013-01-17 04:35:00
8:55 PM,32.0,32.0,100,30.56,8.0,NNW,3.5,-,0.00,,Clear,330,2013-01-17 04:55:00
9:15 PM,32.0,32.0,100,30.55,10.0,Calm,Calm,-,0.00,,Clear,0,2013-01-17 05:15:00
9:35 PM,32.0,32.0,100,30.55,8.0,North,3.5,-,0.00,,Clear,350,2013-01-17 05:35:00
9:55 PM,32.0,32.0,100,30.56,10.0,North,3.5,-,0.00,,Clear,350,2013-01-17 05:55:00
10:15 PM,32.0,32.0,100,30.55,10.0,Calm,Calm,-,0.00,,Clear,0,2013-01-17 06:15:00
10:35 PM,32.0,32.0,100,30.55,10.0,East,3.5,-,0.00,,Clear,80,2013-01-17 06:35:00
10:55 PM,32.0,32.0,100,30.54,10.0,Calm,Calm,-,0.00,,Clear,0,2013-01-17 06:55:00
11:15 PM,32.0,32.0,100,30.55,10.0,Calm,Calm,-,0.00,,Clear,0,2013-01-17 07:15:00
11:35 PM,32.0,32.0,100,30.55,8.0,Calm,Calm,-,0.00,,Clear,0,2013-01-17 07:35:00
11:55 PM,30.2,30.2,100,30.54,8.0,Calm,Calm,-,0.00,,Clear,0,2013-01-17 07:55:00